Regional Weather Roundup
Issued by NWS Jackson, KY

Home | Current Version | Previous Version | Text Only | Print | Product List | Glossary Off
Versions: 1 2 3 4 5 6 7 8 9 10 11 12 13 14 15 16 17 18 19 20 21 22 23 24 25 26 27 28 29 30 31 32 33 34 35 36 37 38 39 40 41 42 43 44 45 46 47 48 49 50

000
ASUS43 KJKL 011910
RWRJKL

EAST KENTUCKY HOURLY WEATHER ROUNDUP
NATIONAL WEATHER SERVICE JACKSON KY
300 PM EDT WED OCT 01 2014

NOTE: "FAIR" INDICATES FEW OR NO CLOUDS BELOW 12,000 FEET WITH
NO SIGNIFICANT WEATHER AND/OR OBSTRUCTIONS TO VISIBILITY.

* THESE REPORTS ARE NOT UNDER NWS QUALITY CONTROL AND MAY NOT
  REPORT WEATHER SUCH AS PRECIPITATION AND FOG.

KYZ079-080-083-085-087-088-110-112-115-119-120-012000
...EASTERN KENTUCKY...

CITY           SKY/WX    TMP DP  RH WIND       PRES   REMARKS
JACKSON        SUNNY     77  60  55 N6        30.02F
LONDON         MOSUNNY   82  52  35 W5        30.01F
SOMERSET*      SUNNY     81  50  34 W5        30.01F
MONTICELLO*    SUNNY     85  54  34 W6        30.01F
WILLIAMSBURG*  MOSUNNY   81  55  41 CALM      30.01F
MIDDLESBORO*   SUNNY     80  55  41 SW5       30.01F
HARLAN APT*    PTCLDY    77  50  38 N6        30.02S
HAZARD APT*    PTCLDY    79  55  44 W8        30.01F
BLACK MTN*       N/A     66  55  68 E1          N/A
PIKEVILLE APT* SUNNY     75  61  60 CALM      30.02F
BIG SANDY*     PTCLDY    77  63  61 CALM      30.02S
MOREHEAD APT*  PTCLDY    77  59  53 NW7       30.02F
$$

KYZ035-036-041-042-044-050-067-078-099-012000
...CENTRAL KENTUCKY...

CITY           SKY/WX    TMP DP  RH WIND       PRES   REMARKS
MT STERLING*   MOSUNNY   79  61  53 N6        30.02F
FLEMING/MASON* SUNNY     77  59  53 N6        30.01F
DANVILLE*      PTSUNNY   82  54  36 NW6       30.00F
RICHMOND*      MOSUNNY   79  57  47 CALM      29.99F
LEXINGTON      SUNNY     80  59  48 CALM      30.00F
FRANKFORT      SUNNY     78  60  53 CALM      29.98F
$$

KYZ091>093-OHZ055-061-077-WVZ005-015-034-035-042-012000
...SOUTHERN OHIO/WEST VIRGINIA...

CITY           SKY/WX    TMP DP  RH WIND       PRES   REMARKS
COVINGTON      MOSUNNY   74  54  49 CALM      30.00F
COLUMBUS       MOSUNNY   69  49  48 N6        30.02F
DAYTON         MOSUNNY   64  52  64 SE5       30.04F
WILMINGTON     SUNNY     64  50  60 NE3       30.03F
HUNTINGTON     MOSUNNY   73  61  65 N6        30.00F
CHARLESTON     CLOUDY    67  59  75 VRB5      30.02F
PINEVILLE*     MOSUNNY   80  59  48 MISG      30.06F
BECKLEY        PTSUNNY   75  50  41 W10G20    30.04F
BLUEFIELD      MOSUNNY   75  45  34 W12       30.08F
$$

VAZ002-007-008-TNZ017-027-036-066-071-012000
...SOUTHWEST VIRGINIA/EAST TENNESSEE...

CITY           SKY/WX    TMP DP  RH WIND       PRES   REMARKS
WISE*          MOSUNNY   77  43  29 NW6       30.09S
JONESVILLE*    PTCLDY    81  50  34 CALM      30.04S
ABINGDON*      MOSUNNY   78  47  33 W5        30.05F
BRISTOL        MOSUNNY   81  47  30 N8        30.02F
KNOXVILLE      PTSUNNY   81  53  37 CALM      29.99F
OAK RIDGE      MOSUNNY   81  54  39 CALM      30.01F
CROSSVILLE     SUNNY     80  43  26 W9        30.04F
NASHVILLE      MOSUNNY   86  55  34 VRB5      29.96F
$$

...KEY TO REMARKS...
VSB - VISIBILITY IN MILES
WCI - WIND CHILL INDEX
HX  - HEAT INDEX

$$


USA.gov is the U.S. government's official web portal to all federal, state and local government web resources and services.